WOODBINE - NJ NJ-MESONET current weather conditions

sailwx.info

Wind from 237 at 8 knots gusting 11

Air temperature 29.4° C
Dewpoint 23.3° C

Last reported at 2020-Jul-11 15:00 UTC.
Time now 2020-Jul-11 15:19 UTC

Location: N 39°13' W 074°48'.
View on Google Maps.

See reports from other nearby stations

  
Tides and Currents Weather Stations Pressure Air Temp Water Temp Dewpoint Dewpoint Depression Visibility Wind Speed Wind Dir Waves Ship Positions
date/time (UTC)wind fromknots sea level pressurealtimeterstation pressurevisibilityair tempwater tempwave heightnotes
2020-Jul-11 15:00 237 8 gusting 11 29.4
2020-Jul-11 14:55 241 7 gusting 10 30.0
2020-Jul-11 14:50 254 5 gusting 11 30.0
2020-Jul-11 14:45 248 6 gusting 11 30.0
2020-Jul-11 14:40 241 8 gusting 10 30.0
2020-Jul-11 14:35 277 6 gusting 14 28.9
2020-Jul-11 14:30 268 7 gusting 12 28.9
2020-Jul-11 14:25 277 6 gusting 12 28.9
2020-Jul-11 14:20 236 9 gusting 13 29.4
2020-Jul-11 14:15 249 6 gusting 12 29.4
2020-Jul-11 14:10 234 7 gusting 13 28.9
2020-Jul-11 14:05 217 8 gusting 14 28.9
2020-Jul-11 14:00 268 7 gusting 12 28.9
2020-Jul-11 13:55 227 7 gusting 14 28.9
2020-Jul-11 13:50 237 13 gusting 13 28.3
2020-Jul-11 13:45 211 10 gusting 13 28.3
2020-Jul-11 13:40 226 11 gusting 14 28.3
2020-Jul-11 13:35 252 11 gusting 11 28.3
2020-Jul-11 13:30 240 7 gusting 14 28.3
2020-Jul-11 13:25 222 6 gusting 14 28.3
2020-Jul-11 13:20 220 11 gusting 13 27.8
2020-Jul-11 13:15 214 9 gusting 17 27.8
2020-Jul-11 13:10 220 12 gusting 13 27.8
2020-Jul-11 13:05 225 13 gusting 15 27.8
2020-Jul-11 13:00 223 13 gusting 13 27.8
2020-Jul-11 12:55 229 9 gusting 13 27.8
2020-Jul-11 12:50 217 7 gusting 12 27.8
2020-Jul-11 12:45 222 6 gusting 15 27.2
2020-Jul-11 12:40 248 10 gusting 13 27.2
2020-Jul-11 12:35 250 6 gusting 14 27.2
2020-Jul-11 12:30 228 6 gusting 14 27.2
2020-Jul-11 12:25 232 10 gusting 13 27.2
2020-Jul-11 12:20 238 10 gusting 13 27.2
2020-Jul-11 12:15 213 12 gusting 15 26.7
2020-Jul-11 12:10 224 9 gusting 14 26.7
2020-Jul-11 12:05 218 11 gusting 13 26.7
2020-Jul-11 12:00 228 6 gusting 13 26.7
2020-Jul-11 11:55 222 12 gusting 14 26.7
2020-Jul-11 11:50 233 13 gusting 13 26.7
2020-Jul-11 11:45 210 7 gusting 12 26.7
2020-Jul-11 11:40 218 11 gusting 13 26.1
2020-Jul-11 11:35 223 10 gusting 10 26.1
2020-Jul-11 11:30 211 4 gusting 6 25.6
2020-Jul-11 11:25 206 3 gusting 8 25.6
2020-Jul-11 11:20 207 5 gusting 8 25.6
2020-Jul-11 11:15 208 5 gusting 7 25.0
2020-Jul-11 11:10 216 4 gusting 9 25.0
2020-Jul-11 11:05 212 4 gusting 8 25.0
2020-Jul-11 11:00 205 5 gusting 9 24.4
2020-Jul-11 10:55 191 6 gusting 7 24.4
2020-Jul-11 10:50 196 6 gusting 6 24.4
2020-Jul-11 10:45 192 5 gusting 6 24.4
2020-Jul-11 10:40 226 5 gusting 6 24.4
2020-Jul-11 10:35 229 3 gusting 6 23.9
2020-Jul-11 10:30 212 3 gusting 6 23.9
2020-Jul-11 10:25 204 3 gusting 5 23.9
2020-Jul-11 10:20 189 3 gusting 6 23.9
2020-Jul-11 10:15 173 4 gusting 5 23.9
2020-Jul-11 10:10 179 3 gusting 5 23.9
2020-Jul-11 10:05 201 2 gusting 5 23.9
2020-Jul-11 10:00 204 2 gusting 4 23.3
2020-Jul-11 09:55 176 2 gusting 4 23.3
2020-Jul-11 09:50 205 2 gusting 5 23.3
2020-Jul-11 09:45 198 1 gusting 4 23.3
2020-Jul-11 09:40 158 3 gusting 4 23.3
2020-Jul-11 09:35 169 3 gusting 4 23.3
2020-Jul-11 09:30 162 3 gusting 4 23.9
2020-Jul-11 09:25 197 3 gusting 6 23.9
2020-Jul-11 09:20 204 3 gusting 6 23.9
2020-Jul-11 09:15 181 3 gusting 6 23.9
2020-Jul-11 09:10 203 3 gusting 6 23.9
2020-Jul-11 09:05 198 3 gusting 6 23.9
2020-Jul-11 09:00 188 4 gusting 6 23.9
2020-Jul-11 08:55 193 3 gusting 6 23.9
2020-Jul-11 08:50 184 5 gusting 7 23.9
2020-Jul-11 08:45 200 5 gusting 6 23.9
2020-Jul-11 08:40 205 6 gusting 6 23.9
2020-Jul-11 08:35 176 4 gusting 7 23.9
2020-Jul-11 08:30 181 4 gusting 7 23.9
2020-Jul-11 08:25 208 5 gusting 6 23.9
2020-Jul-11 08:20 210 4 gusting 7 23.9
2020-Jul-11 08:15 199 6 gusting 7 23.9
2020-Jul-11 08:10 205 4 gusting 6 23.9
2020-Jul-11 08:05 198 4 gusting 7 23.9
2020-Jul-11 08:00 195 5 gusting 7 23.9
2020-Jul-11 07:55 190 4 gusting 9 23.9
2020-Jul-11 07:50 190 6 gusting 7 23.9
2020-Jul-11 07:45 177 6 gusting 7 23.9
2020-Jul-11 07:40 198 4 gusting 7 23.9
2020-Jul-11 07:35 166 5 gusting 6 23.9
2020-Jul-11 07:30 187 6 gusting 6 23.9
2020-Jul-11 07:25 189 4 gusting 6 23.9
2020-Jul-11 07:20 178 4 gusting 9 23.9
2020-Jul-11 07:15 196 6 gusting 6 23.9
2020-Jul-11 07:10 167 4 gusting 6 23.9
2020-Jul-11 07:05 192 4 gusting 6 23.9
2020-Jul-11 07:00 177 5 gusting 6 23.9
2020-Jul-11 06:55 174 4 gusting 6 23.9
2020-Jul-11 06:50 180 4 gusting 5 23.9
2020-Jul-11 06:45 204 4 gusting 6 23.9
2020-Jul-11 06:40 204 3 gusting 5 23.9
2020-Jul-11 06:35 182 4 gusting 6 23.9
2020-Jul-11 06:30 176 5 gusting 7 23.3
2020-Jul-11 06:25 169 4 gusting 6 23.3
2020-Jul-11 06:20 174 2 gusting 4 23.3
2020-Jul-11 06:15 181 5 gusting 5 23.3
2020-Jul-11 06:10 170 4 gusting 5 23.3
2020-Jul-11 06:05 198 4 gusting 5 23.3
2020-Jul-11 06:00 204 2 gusting 5 23.3
2020-Jul-11 05:55 181 3 gusting 5 23.9
2020-Jul-11 05:50 191 4 gusting 5 23.9
2020-Jul-11 05:45 175 5 gusting 5 23.9
2020-Jul-11 05:40 203 5 gusting 6 23.9
2020-Jul-11 05:35 202 3 gusting 6 23.9
2020-Jul-11 05:30 190 2 gusting 5 23.9
2020-Jul-11 05:25 194 4 gusting 5 23.9
2020-Jul-11 05:20 186 3 gusting 5 23.9
2020-Jul-11 05:15 178 4 gusting 5 23.9
2020-Jul-11 05:10 179 2 gusting 5 23.9
2020-Jul-11 05:05 168 3 gusting 5 23.9
2020-Jul-11 05:00 189 4 gusting 5 23.9
2020-Jul-11 04:55 209 3 gusting 4 23.9
2020-Jul-11 04:50 214 1 gusting 2 23.9
2020-Jul-11 04:45 219 2 gusting 3 24.4
2020-Jul-11 04:40 244 2 gusting 4 24.4
2020-Jul-11 04:35 239 3 gusting 4 24.4
2020-Jul-11 04:30 209 3 gusting 4 24.4
2020-Jul-11 04:25 239 3 gusting 5 24.4
2020-Jul-11 04:20 241 4 gusting 5 24.4
2020-Jul-11 04:15 232 3 gusting 6 25.0
2020-Jul-11 04:10 222 4 gusting 6 25.0
2020-Jul-11 04:05 208 3 gusting 6 25.0
2020-Jul-11 04:00 234 4 gusting 6 25.0
2020-Jul-11 03:55 243 6 gusting 7 25.0
2020-Jul-11 03:50 219 5 gusting 8 25.0
2020-Jul-11 03:45 235 6 gusting 8 25.0
2020-Jul-11 03:40 238 5 gusting 8 25.0
2020-Jul-11 03:35 229 5 gusting 10 25.0
2020-Jul-11 03:30 229 6 gusting 11 25.0
2020-Jul-11 03:25 235 8 gusting 12 25.0
2020-Jul-11 03:20 227 9 gusting 14 25.0
2020-Jul-11 03:15 219 9 gusting 12 25.0
2020-Jul-11 03:10 240 6 gusting 10 25.0
2020-Jul-11 03:05 233 7 gusting 11 25.6
2020-Jul-11 03:00 220 9 gusting 13 25.6
2020-Jul-11 02:55 227 10 gusting 12 25.6
2020-Jul-11 02:50 236 7 gusting 11 25.6
2020-Jul-11 02:45 228 8 gusting 12 25.6
2020-Jul-11 02:40 252 11 gusting 13 25.6
2020-Jul-11 02:35 236 6 gusting 13 25.6
2020-Jul-11 02:30 234 7 gusting 14 25.6
2020-Jul-11 02:25 221 9 gusting 15 25.6
2020-Jul-11 02:20 237 14 gusting 16 25.6
2020-Jul-11 02:15 244 10 gusting 14 25.6
2020-Jul-11 02:10 242 11 gusting 15 25.6
2020-Jul-11 02:05 242 12 gusting 15 25.6
2020-Jul-11 02:00 249 10 gusting 17 25.6
2020-Jul-11 01:55 235 13 gusting 16 25.6
2020-Jul-11 01:50 251 9 gusting 15 25.6
2020-Jul-11 01:45 252 8 gusting 19 25.6
2020-Jul-11 01:40 238 8 gusting 17 25.6
2020-Jul-11 01:35 249 8 gusting 15 25.6
2020-Jul-11 01:30 240 8 gusting 17 25.6
2020-Jul-11 01:25 254 14 gusting 25 25.6
2020-Jul-11 01:20 252 24 gusting 24 25.6
2020-Jul-11 01:15 238 12 gusting 18 25.6
2020-Jul-11 01:10 234 8 gusting 19 25.6
2020-Jul-11 01:05 236 14 gusting 17 25.0
2020-Jul-11 01:00 252 10 gusting 17 25.0
2020-Jul-11 00:55 238 6 gusting 16 25.0
2020-Jul-11 00:50 234 6 gusting 12 24.4
2020-Jul-11 00:45 235 6 gusting 11 24.4
2020-Jul-11 00:40 268 6 gusting 13 23.9
2020-Jul-11 00:35 268 7 gusting 13 23.9
2020-Jul-11 00:30 237 8 gusting 17 23.9
2020-Jul-11 00:25 297 8 gusting 18 23.9
2020-Jul-11 00:20 268 15 gusting 20 23.9
2020-Jul-11 00:15 269 18 gusting 19 23.9
2020-Jul-11 00:10 286 11 gusting 17 23.9
2020-Jul-11 00:05 260 13 gusting 17 23.9
2020-Jul-11 00:00 271 11 gusting 14 23.9
2020-Jul-10 23:55 222 7 gusting 18 23.9
2020-Jul-10 23:50 260 13 gusting 16 23.3
2020-Jul-10 23:45 244 7 gusting 18 23.3
2020-Jul-10 23:40 263 13 gusting 17 23.3
2020-Jul-10 23:35 257 9 gusting 19 23.3
2020-Jul-10 23:30 229 11 gusting 18 23.3
2020-Jul-10 23:25 278 13 gusting 20 23.3
2020-Jul-10 23:20 222 16 gusting 23 23.9
2020-Jul-10 23:15 254 9 gusting 19 23.9
2020-Jul-10 23:10 259 10 gusting 17 23.9
2020-Jul-10 23:05 269 10 gusting 17 23.9
2020-Jul-10 23:00 253 7 gusting 15 23.9
2020-Jul-10 22:55 262 5 gusting 12 23.9
2020-Jul-10 22:50 273 7 gusting 13 23.9
2020-Jul-10 22:45 252 6 gusting 10 23.9
2020-Jul-10 22:40 287 10 gusting 17 23.9
2020-Jul-10 22:35 273 13 gusting 16 23.9
2020-Jul-10 22:30 266 10 gusting 17 23.3
2020-Jul-10 22:25 291 4 gusting 15 23.3
2020-Jul-10 22:20 280 9 gusting 15 23.3
2020-Jul-10 22:15 260 8 gusting 16 23.3
2020-Jul-10 22:10 226 9 gusting 13 23.3
2020-Jul-10 22:05 259 12 gusting 15 23.3
2020-Jul-10 22:00 271 10 gusting 19 23.9
2020-Jul-10 21:55 251 6 gusting 15 23.9
2020-Jul-10 21:50 282 10 gusting 19 23.9
2020-Jul-10 21:45 274 9 gusting 17 24.4
2020-Jul-10 21:40 269 4 gusting 17 24.4
2020-Jul-10 21:35 265 12 gusting 15 24.4
2020-Jul-10 21:30 275 7 gusting 13 24.4
2020-Jul-10 21:25 308 11 gusting 17 24.4
2020-Jul-10 21:20 293 9 gusting 13 24.4
2020-Jul-10 21:15 292 7 gusting 16 24.4
2020-Jul-10 21:10 278 11 gusting 15 24.4
2020-Jul-10 21:05 304 6 gusting 14 24.4
2020-Jul-10 21:00 308 12 gusting 15 24.4
2020-Jul-10 20:55 269 7 gusting 14 24.4
2020-Jul-10 20:50 268 6 gusting 12 25.0
2020-Jul-10 20:45 276 9 gusting 12 25.6
2020-Jul-10 20:40 273 6 gusting 17 25.0
2020-Jul-10 20:35 277 5 gusting 10 25.6
2020-Jul-10 20:30 282 5 gusting 11 25.0
2020-Jul-10 20:25 299 8 gusting 10 25.0
2020-Jul-10 20:20 290 6 gusting 14 25.0
2020-Jul-10 20:15 294 10 gusting 13 25.6
2020-Jul-10 20:10 305 6 gusting 10 25.6
2020-Jul-10 20:05 300 6 gusting 11 25.0
2020-Jul-10 20:00 330 8 gusting 11 25.0
2020-Jul-10 19:55 328 8 gusting 13 24.4
2020-Jul-10 19:50 333 8 gusting 12 25.0
2020-Jul-10 19:45 344 6 gusting 12 25.0
2020-Jul-10 19:40 327 9 gusting 13 24.4
2020-Jul-10 19:35 333 8 gusting 13 25.0
2020-Jul-10 19:30 319 8 gusting 12 25.0
2020-Jul-10 19:25 335 8 gusting 10 24.4
2020-Jul-10 19:20 327 6 gusting 9 24.4
2020-Jul-10 19:15 335 5 gusting 9 24.4
2020-Jul-10 19:10 318 8 gusting 10 23.9
2020-Jul-10 19:05 312 6 gusting 7 23.9
2020-Jul-10 19:00 335 6 gusting 7 23.9
2020-Jul-10 18:55 339 6 gusting 6 23.9
2020-Jul-10 18:50 343 5 gusting 6 23.9
2020-Jul-10 18:45 002 4 gusting 6 23.9
2020-Jul-10 18:40 354 5 gusting 5 23.9
2020-Jul-10 18:35 023 5 gusting 6 23.9
2020-Jul-10 18:30 024 3 gusting 6 23.9
2020-Jul-10 18:25 058 4 gusting 7 23.9
2020-Jul-10 18:20 024 8 gusting 8 23.3
2020-Jul-10 18:15 039 8 gusting 9 23.3
2020-Jul-10 18:10 048 8 gusting 10 23.9
2020-Jul-10 18:05 064 6 gusting 11 23.3
2020-Jul-10 18:00 084 4 gusting 7 23.3
2020-Jul-10 17:55 081 4 gusting 6 23.9
2020-Jul-10 17:50 097 5 gusting 10 23.9
2020-Jul-10 17:45 089 5 gusting 12 23.9
2020-Jul-10 17:40 080 6 gusting 13 23.9
2020-Jul-10 17:35 105 6 gusting 13 23.3
2020-Jul-10 17:30 073 7 gusting 13 23.3
2020-Jul-10 17:25 077 8 gusting 16 23.3
2020-Jul-10 17:20 072 13 gusting 19 23.3
2020-Jul-10 17:15 105 13 gusting 20 23.3
2020-Jul-10 17:10 075 7 gusting 21 23.3
2020-Jul-10 17:05 097 9 gusting 19 23.3
2020-Jul-10 17:00 091 10 gusting 19 23.3
2020-Jul-10 16:55 099 11 gusting 19 23.3
2020-Jul-10 16:50 090 8 gusting 22 23.3
2020-Jul-10 16:45 115 13 gusting 18 23.9
2020-Jul-10 16:40 099 11 gusting 22 23.9
2020-Jul-10 16:35 091 13 gusting 19 23.9
2020-Jul-10 16:30 074 10 gusting 20 23.9
2020-Jul-10 16:25 103 10 gusting 25 23.9
2020-Jul-10 16:20 103 16 gusting 24 24.4
2020-Jul-10 16:15 121 15 gusting 21 24.4
2020-Jul-10 16:10 099 14 gusting 21 25.0
2020-Jul-10 16:05 096 13 gusting 24 24.4
2020-Jul-10 16:00 114 19 gusting 20 24.4
2020-Jul-10 15:55 076 13 gusting 24 24.4
2020-Jul-10 15:50 062 9 gusting 17 24.4
2020-Jul-10 15:45 079 10 gusting 18 24.4
2020-Jul-10 15:40 060 11 gusting 19 24.4
2020-Jul-10 15:35 027 6 gusting 15 24.4
2020-Jul-10 15:30 066 16 gusting 16 24.4
2020-Jul-10 15:25 069 10 gusting 19 24.4
2020-Jul-10 15:20 043 11 gusting 21 24.4
2020-Jul-10 15:15 069 10 gusting 20 24.4
2020-Jul-10 15:10 055 15 gusting 19 24.4
2020-Jul-10 15:05 036 11 gusting 19 24.4
2020-Jul-10 15:00 049 13 gusting 18 24.4
2020-Jul-10 14:55 061 11 gusting 22 24.4
2020-Jul-10 14:50 058 13 gusting 20 23.9
2020-Jul-10 14:45 062 10 gusting 18 23.9
2020-Jul-10 14:40 058 6 gusting 11 22.8
2020-Jul-10 14:35 089 3 gusting 12 22.8
2020-Jul-10 14:30 096 8 gusting 18 22.2
2020-Jul-10 14:25 050 18 gusting 21 22.8
2020-Jul-10 14:20 047 19 gusting 24 22.8
2020-Jul-10 14:15 032 13 gusting 22 22.8
2020-Jul-10 14:10 037 9 gusting 19 22.2
2020-Jul-10 14:05 044 13 gusting 22 22.2
2020-Jul-10 14:00 036 12 gusting 18 22.2
2020-Jul-10 13:55 025 12 gusting 25 22.2
2020-Jul-10 13:50 045 16 gusting 26 22.2
2020-Jul-10 13:45 060 22 gusting 31 22.2
2020-Jul-10 13:40 041 11 gusting 26 22.2
2020-Jul-10 13:35 040 9 gusting 23 22.2
2020-Jul-10 13:30 062 21 gusting 25 22.2
2020-Jul-10 13:25 041 23 gusting 28 22.2
2020-Jul-10 13:20 065 16 gusting 27 22.2
2020-Jul-10 13:15 067 11 gusting 25 22.2
2020-Jul-10 13:10 045 9 gusting 22 22.2
2020-Jul-10 13:05 029 11 gusting 25 22.8
2020-Jul-10 13:00 054 21 gusting 30 22.2
2020-Jul-10 12:55 047 21 gusting 26 22.2
2020-Jul-10 12:50 063 18 gusting 23 22.8
2020-Jul-10 12:45 070 12 gusting 27 22.8
2020-Jul-10 12:40 069 14 gusting 24 22.8
2020-Jul-10 12:35 067 10 gusting 19 22.8
2020-Jul-10 12:30 040 14 gusting 23 23.3
2020-Jul-10 12:25 076 14 gusting 20 23.3
2020-Jul-10 12:20 036 8 gusting 17 22.8
2020-Jul-10 12:15 044 10 gusting 17 22.8
2020-Jul-10 12:10 042 10 gusting 15 22.8
2020-Jul-10 12:05 030 12 gusting 13 22.8
2020-Jul-10 12:00 070 9 gusting 18 22.8
2020-Jul-10 11:55 048 14 gusting 18 22.8
2020-Jul-10 11:50 065 10 gusting 16 22.8
2020-Jul-10 11:45 080 13 gusting 19 22.8
2020-Jul-10 11:40 054 12 gusting 19 22.8
2020-Jul-10 11:35 044 12 gusting 21 23.3
2020-Jul-10 11:30 060 10 gusting 13 22.8
2020-Jul-10 11:25 059 10 gusting 12 22.8
2020-Jul-10 11:20 020 8 gusting 13 22.8
2020-Jul-10 11:15 017 7 gusting 14 22.8
2020-Jul-10 11:10 033 7 gusting 16 22.8
2020-Jul-10 11:05 057 8 gusting 14 22.8
2020-Jul-10 11:00 042 10 gusting 13 22.8
2020-Jul-10 10:55 049 8 gusting 15 22.8
2020-Jul-10 10:50 044 9 gusting 10 22.8
2020-Jul-10 10:45 036 8 gusting 16 22.8
2020-Jul-10 10:40 049 6 gusting 13 22.8
2020-Jul-10 10:35 063 6 gusting 13 22.8
2020-Jul-10 10:30 039 7 gusting 14 22.8
2020-Jul-10 10:25 064 6 gusting 15 22.8
2020-Jul-10 10:20 044 7 gusting 13 22.8
2020-Jul-10 10:15 073 6 gusting 11 22.8
2020-Jul-10 10:10 066 6 gusting 12 22.8
2020-Jul-10 10:05 091 7 gusting 12 22.8
2020-Jul-10 10:00 049 8 gusting 9 23.3
2020-Jul-10 09:55 057 8 gusting 12 23.3
2020-Jul-10 09:50 045 6 gusting 10 23.3
2020-Jul-10 09:45 050 6 gusting 10 23.3
2020-Jul-10 09:40 041 6 gusting 8 23.3
2020-Jul-10 09:35 016 6 gusting 7 23.3
2020-Jul-10 09:30 039 5 gusting 8 23.3
2020-Jul-10 09:25 064 6 gusting 8 23.3
2020-Jul-10 09:20 052 4 gusting 8 23.3
2020-Jul-10 09:15 036 5 gusting 6 23.3
2020-Jul-10 09:10 042 4 gusting 7 23.3
2020-Jul-10 09:05 046 6 gusting 8 23.3
2020-Jul-10 09:00 029 3 gusting 8 23.3
2020-Jul-10 08:55 045 7 gusting 8 23.3
2020-Jul-10 08:50 058 6 gusting 7 23.3
2020-Jul-10 08:45 048 4 gusting 6 23.3
2020-Jul-10 08:40 083 5 gusting 7 23.3
2020-Jul-10 08:35 086 6 gusting 6 23.3
2020-Jul-10 08:30 076 4 gusting 8 23.3
2020-Jul-10 08:25 071 4 gusting 6 23.3
2020-Jul-10 08:20 076 5 gusting 8 23.3
2020-Jul-10 08:15 087 2 gusting 9 23.3
2020-Jul-10 08:10 097 6 gusting 10 23.3
2020-Jul-10 08:05 104 7 gusting 7 23.3
2020-Jul-10 08:00 110 6 gusting 8 23.3
2020-Jul-10 07:55 112 6 gusting 10 23.3
2020-Jul-10 07:50 146 7 gusting 13 23.3
2020-Jul-10 07:45 106 7 gusting 13 23.9
2020-Jul-10 07:40 138 6 gusting 10 24.4
2020-Jul-10 07:35 074 3 gusting 6 24.4
2020-Jul-10 07:30 065 4 gusting 6 24.4
2020-Jul-10 07:25 078 6 gusting 7 24.4
2020-Jul-10 07:20 062 4 gusting 5 25.0
2020-Jul-10 07:15 076 3 gusting 6 25.0
2020-Jul-10 07:10 080 5 gusting 5 25.0
2020-Jul-10 07:05 055 3 gusting 5 25.0
2020-Jul-10 07:00 072 3 gusting 6 25.0
2020-Jul-10 06:55 059 4 gusting 6 25.0
2020-Jul-10 06:50 069 5 gusting 5 25.0
2020-Jul-10 06:45 088 3 gusting 6 25.0
2020-Jul-10 06:40 092 4 gusting 6 25.0
2020-Jul-10 06:35 096 2 gusting 7 25.0
2020-Jul-10 06:30 105 6 gusting 6 25.0
2020-Jul-10 06:25 092 6 gusting 7 25.0
2020-Jul-10 06:20 083 5 gusting 9 25.0
2020-Jul-10 06:15 116 6 gusting 8 25.0
2020-Jul-10 06:10 119 7 gusting 8 25.0
2020-Jul-10 06:05 100 6 gusting 7 25.0
2020-Jul-10 06:00 108 5 gusting 7 25.0
2020-Jul-10 05:55 093 5 gusting 7 25.0
2020-Jul-10 05:50 094 6 gusting 8 25.0
2020-Jul-10 05:45 106 6 gusting 8 25.0
2020-Jul-10 05:40 139 5 gusting 8 25.0
2020-Jul-10 05:35 108 6 gusting 8 25.0
2020-Jul-10 05:30 086 5 gusting 6 25.0
2020-Jul-10 05:25 113 4 gusting 7 25.0
2020-Jul-10 05:20 111 5 gusting 7 25.0
2020-Jul-10 05:15 083 4 gusting 9 25.0
2020-Jul-10 05:10 092 5 gusting 8 25.0
2020-Jul-10 05:05 096 4 gusting 8 25.0
2020-Jul-10 05:00 088 5 gusting 8 25.0
2020-Jul-10 04:55 081 6 gusting 8 25.0
2020-Jul-10 04:50 089 6 gusting 8 25.0
2020-Jul-10 04:45 090 6 gusting 8 25.0
2020-Jul-10 04:40 077 3 gusting 6 25.0
2020-Jul-10 04:35 113 5 gusting 10 25.0
2020-Jul-10 04:30 100 3 gusting 6 25.6
2020-Jul-10 04:25 102 3 gusting 7 25.6
2020-Jul-10 04:20 098 6 gusting 8 25.0
2020-Jul-10 04:15 106 7 gusting 10 25.6
2020-Jul-10 04:10 094 10 gusting 11 25.0
2020-Jul-10 04:05 085 6 gusting 8 25.0
2020-Jul-10 04:00 104 5 gusting 9 25.0
2020-Jul-10 03:55 102 5 gusting 6 25.0
2020-Jul-10 03:50 096 5 gusting 9 25.0
2020-Jul-10 03:45 087 6 gusting 9 25.0
2020-Jul-10 03:40 082 5 gusting 6 25.0
2020-Jul-10 03:35 100 5 gusting 7 25.0
2020-Jul-10 03:30 090 6 gusting 8 25.0
2020-Jul-10 03:25 078 8 gusting 8 25.0
2020-Jul-10 03:20 087 5 gusting 6 25.0
2020-Jul-10 03:15 088 3 gusting 7 25.0
2020-Jul-10 03:10 104 6 gusting 6 25.0
2020-Jul-10 03:05 078 5 gusting 9 25.0
2020-Jul-10 03:00 073 6 gusting 7 25.0
2020-Jul-10 02:55 078 4 gusting 8 25.0
2020-Jul-10 02:50 082 4 gusting 6 25.0
2020-Jul-10 02:45 084 3 gusting 6 25.0
2020-Jul-10 02:40 071 4 gusting 6 25.0
2020-Jul-10 02:35 100 4 gusting 6 25.0
2020-Jul-10 02:30 093 4 gusting 6 25.0
2020-Jul-10 02:25 054 4 gusting 6 25.0
2020-Jul-10 02:20 079 5 gusting 6 25.0
2020-Jul-10 02:15 099 5 gusting 8 25.0
2020-Jul-10 02:10 091 5 gusting 8 25.0
2020-Jul-10 02:05 077 4 gusting 6 25.0
2020-Jul-10 02:00 104 4 gusting 6 25.0
2020-Jul-10 01:55 088 6 gusting 7 25.0
2020-Jul-10 01:50 075 6 gusting 7 25.0
2020-Jul-10 01:45 094 4 gusting 7 25.0
2020-Jul-10 01:40 082 6 gusting 8 25.6
2020-Jul-10 01:35 086 3 gusting 7 25.6
2020-Jul-10 01:30 103 6 gusting 7 25.6
2020-Jul-10 01:25 092 6 gusting 7 25.6
2020-Jul-10 01:20 084 5 gusting 7 25.0
2020-Jul-10 01:15 081 6 gusting 6 25.0
2020-Jul-10 01:10 091 6 gusting 6 25.6
2020-Jul-10 01:05 063 6 gusting 8 25.6
2020-Jul-10 01:00 074 6 gusting 6 25.6
2020-Jul-10 00:55 080 6 gusting 7 25.0
2020-Jul-10 00:50 080 4 gusting 8 25.0
2020-Jul-10 00:45 089 5 gusting 7 25.0
2020-Jul-10 00:40 091 2 gusting 6 25.6
2020-Jul-10 00:35 088 4 gusting 6 25.6
2020-Jul-10 00:30 083 5 gusting 8 25.6
2020-Jul-10 00:25 094 7 gusting 8 25.6
2020-Jul-10 00:20 082 7 gusting 11 25.6
2020-Jul-10 00:15 091 7 gusting 10 25.6
2020-Jul-10 00:10 095 6 gusting 8 25.6
2020-Jul-10 00:05 085 6 gusting 9 25.6
2020-Jul-10 00:00 080 6 gusting 9 26.1
2020-Jul-09 23:55 116 6 gusting 7 26.1
2020-Jul-09 23:50 094 6 gusting 12 26.1
2020-Jul-09 23:45 083 5 gusting 10 26.1
2020-Jul-09 23:40 101 8 gusting 10 26.7
2020-Jul-09 23:35 107 7 gusting 11 26.7
2020-Jul-09 23:30 108 6 gusting 8 26.7
2020-Jul-09 23:25 104 8 gusting 8 26.7
2020-Jul-09 23:20 101 8 gusting 9 26.7
2020-Jul-09 23:15 101 6 gusting 9 26.7
2020-Jul-09 23:10 094 8 gusting 10 26.7
2020-Jul-09 23:05 091 5 gusting 11 27.2
2020-Jul-09 23:00 119 6 gusting 10 27.8
2020-Jul-09 22:55 108 7 gusting 10 27.2
2020-Jul-09 22:50 117 6 gusting 10 27.2
2020-Jul-09 22:45 111 6 gusting 9 27.2
2020-Jul-09 22:40 093 6 gusting 10 27.2
2020-Jul-09 22:35 097 7 gusting 10 27.2
2020-Jul-09 22:30 104 6 gusting 9 27.2
2020-Jul-09 22:25 098 6 gusting 10 27.2
2020-Jul-09 22:20 094 9 gusting 12 27.2
2020-Jul-09 22:15 105 8 gusting 10 27.8
2020-Jul-09 22:10 118 6 gusting 12 27.8
2020-Jul-09 22:05 112 6 gusting 11 27.8
2020-Jul-09 22:00 115 7 gusting 12 27.2
2020-Jul-09 21:55 110 8 gusting 11 27.8
2020-Jul-09 21:50 098 7 gusting 10 27.8
2020-Jul-09 21:45 100 10 gusting 10 27.8
2020-Jul-09 21:40 109 9 gusting 10 27.8
2020-Jul-09 21:35 109 7 gusting 12 27.8
2020-Jul-09 21:30 102 10 gusting 12 27.2
2020-Jul-09 21:25 121 10 gusting 12 27.8
2020-Jul-09 21:20 124 6 gusting 10 27.8
2020-Jul-09 21:15 094 9 gusting 12 27.8
2020-Jul-09 21:10 106 8 gusting 13 28.3
2020-Jul-09 21:05 118 8 gusting 12 27.8
2020-Jul-09 21:00 092 11 gusting 11 27.8
2020-Jul-09 20:55 102 10 gusting 12 27.8
2020-Jul-09 20:50 098 7 gusting 11 28.9
2020-Jul-09 20:45 141 4 gusting 11 28.3
2020-Jul-09 20:40 137 7 gusting 10 28.3
2020-Jul-09 20:35 124 6 gusting 13 27.8
2020-Jul-09 20:30 109 8 gusting 13 28.3
2020-Jul-09 20:25 127 9 gusting 12 28.9
2020-Jul-09 20:20 086 8 gusting 13 28.9
2020-Jul-09 20:15 103 6 gusting 12 28.9
2020-Jul-09 20:10 126 10 gusting 11 28.9
2020-Jul-09 20:05 107 7 gusting 10 28.9
2020-Jul-09 20:00 107 7 gusting 13 28.9
2020-Jul-09 19:55 131 6 gusting 12 28.9
2020-Jul-09 19:50 098 8 gusting 13 28.9
2020-Jul-09 19:45 122 6 gusting 11 28.9
2020-Jul-09 19:40 115 9 gusting 10 28.3
2020-Jul-09 19:35 091 9 gusting 11 28.9
2020-Jul-09 19:30 093 9 gusting 11 28.9
2020-Jul-09 19:25 123 8 gusting 10 29.4
2020-Jul-09 19:20 080 6 gusting 9 28.9
2020-Jul-09 19:15 116 6 gusting 13 29.4
2020-Jul-09 19:10 109 12 gusting 13 28.9
2020-Jul-09 19:05 119 6 gusting 11 29.4
2020-Jul-09 19:00 103 6 gusting 13 28.9
2020-Jul-09 18:55 108 6 gusting 14 28.9
2020-Jul-09 18:50 141 6 gusting 10 28.9
2020-Jul-09 18:45 114 8 gusting 13 28.9
2020-Jul-09 18:40 118 7 gusting 13 29.4
2020-Jul-09 18:35 155 6 gusting 13 28.9
2020-Jul-09 18:30 097 10 gusting 12 28.9
2020-Jul-09 18:25 154 7 gusting 13 28.9
2020-Jul-09 18:20 106 9 gusting 12 29.4
2020-Jul-09 18:15 107 9 gusting 13 28.9
2020-Jul-09 18:10 112 11 gusting 13 28.9
2020-Jul-09 18:05 145 13 gusting 13 28.3
2020-Jul-09 18:00 132 10 gusting 13 28.3
2020-Jul-09 17:55 154 7 gusting 11 29.4
2020-Jul-09 17:50 120 9 gusting 11 29.4
2020-Jul-09 17:45 126 6 gusting 13 28.3
2020-Jul-09 17:40 126 6 gusting 13 28.9
2020-Jul-09 17:35 117 6 gusting 12 28.3
2020-Jul-09 17:30 114 6 gusting 12 28.3
2020-Jul-09 17:25 104 7 gusting 11 28.3
2020-Jul-09 17:20 087 6 gusting 13 29.4
2020-Jul-09 17:15 087 10 gusting 12 28.9
2020-Jul-09 17:10 149 10 gusting 12 28.9
2020-Jul-09 17:05 136 8 gusting 12 28.9
2020-Jul-09 17:00 099 12 gusting 12 29.4
2020-Jul-09 16:55 078 5 gusting 11 28.9
2020-Jul-09 16:50 142 6 gusting 10 28.9
2020-Jul-09 16:45 090 7 gusting 13 28.9
2020-Jul-09 16:40 097 4 gusting 10 28.9
2020-Jul-09 16:35 171 3 gusting 11 28.3
2020-Jul-09 16:30 126 6 gusting 11 28.9
2020-Jul-09 16:25 124 8 gusting 12 29.4
2020-Jul-09 16:20 121 6 gusting 11 28.9
2020-Jul-09 16:15 111 8 gusting 12 28.9
2020-Jul-09 16:10 115 12 gusting 13 28.9
2020-Jul-09 16:05 143 3 gusting 11 28.9
2020-Jul-09 16:00 092 8 gusting 12 28.9
2020-Jul-09 15:55 096 10 gusting 12 28.9
2020-Jul-09 15:50 091 10 gusting 11 28.9
2020-Jul-09 15:45 105 3 gusting 12 28.3
2020-Jul-09 15:40 129 6 gusting 12 28.3
2020-Jul-09 15:35 113 9 gusting 12 28.3
2020-Jul-09 15:30 106 7 gusting 11 28.9
2020-Jul-09 15:25 112 5 gusting 11 28.3
2020-Jul-09 15:20 135 6 gusting 9 28.9
2020-Jul-09 15:15 102 6 gusting 13 28.9
2020-Jul-09 15:10 093 9 gusting 11 28.9
2020-Jul-09 15:05 116 11 gusting 11 28.9
2020-Jul-09 15:00 111 6 gusting 9 28.9